sat.trackr.live / text

‹ back to catalog

JILIN GAOFEN OBJECT E

NORAD 68695 · 2026-080E

PAYLOAD ACTIVE UNKNOWN

§ Identity

Operator
Country
PRC
Launch date
2026-04-14
Launch site
JSC
Launch vehicle
Mass (kg)
RCS (m²)

External: N2YO · Heavens-Above · Gunter

§ Orbital elements

Epoch: 2026-05-25T04:15:42.749568Z

Period
95.38 min
Inclination
97.6640°
Eccentricity
0.0017212
Mean motion
15.09740043 rev/d
Perigee alt
525.1 km
Apogee alt
548.9 km
Semi-major
6,915.1 km
B*
3.0010e-4
RAAN
220.8140°
Arg perigee
138.1640°
Mean anomaly
222.0908°
Rev number
615

§ Raw data

JILIN GAOFEN OBJECT E1 68695U 26080E   26145.17757812  .00004792  00000+0  30010-3 0  99942 68695  97.6640 220.8140 0017212 138.1640 222.0908 15.09740043  6159

JSON: /api/v1/satellites/68695 · /tle

For live sub-satellite position, see the globe view (requires WebGL).

§ Visibility from observer

Set your observer location to see the next 7 days of passes ≥ 10°. The values pass through the URL so the page stays shareable.

No JS? Fill the form by hand. The geolocation button needs JavaScript.